[[{"header":{"parameterUnit":"m.s-1","parameterCategory":1,"la1":30.2991,"la2":30.254,"lo1":-89.0895,"lo2":-89.0444,"dy":0.0017,"dx":0.0017,"nx":28,"ny":28,"refTime":"2024-09-04T03:00:00:Z","depth":0,"parameterNumber":2,"parameterNumberName":"U-component_of_WINDS"},"data":[0,0,0,0,0,0,0,0,0,0,0,0,0,0,0,0,0,0,0,0,0,0,0,0,0,0,0,0,0,0,0,0,0,0,0,0,0,0,0,0,0,0,0,0,0,0,0,0,0,0,0,0,0,0,0,0,0,0,-7.109,-7.1089,0,-7.102,-7.1019,-7.1018,-7.0821,-7.0817,-7.0812,-7.0808,-7.0742,-7.0745,-7.0747,0,0,0,0,0,0,0,0,0,0,0,0,0,-7.1059,-7.1061,-7.109,-7.1089,-7.1088,-7.102,-7.1019,-7.1018,-7.0822,-7.0816,-7.0811,-7.0806,-7.0742,-7.0744,-7.0747,0,0,0,0,0,0,0,0,0,0,0,0,0,-7.104,-7.1061,-7.109,-7.0982,-7.0971,-7.102,-7.1019,-7.1018,-7.0823,-7.0816,-7.081,-7.0804,-7.0741,-7.0744,-7.0747,-7.0897,0,0,-7.0758,-7.0759,0,0,0,0,0,0,0,0,-7.1041,-7.1041,-7.0999,-7.0989,-7.0978,-7.0922,-7.0984,-7.0978,-7.0824,-7.088,-7.0808,-7.0801,-7.0808,-7.0805,-7.0806,-7.0894,-7.0891,-7.0758,-7.076,-7.0761,-7.0762,0,0,0,0,0,0,0,-7.1043,-7.1043,-7.1062,-7.0998,-7.0986,-7.0939,-7.0929,-7.0982,-7.0881,-7.0874,-7.086,-7.0854,-7.0801,-7.0804,-7.0804,-7.089,-7.0758,-7.0761,-7.0763,-7.0764,-7.1097,-7.1103,0,0,0,0,0,0,-7.1059,-7.1045,-7.1064,-7.106,-7.0994,-7.0944,-7.0933,-7.0947,-7.088,-7.0863,-7.0859,-7.0845,-7.0801,-7.08,-7.0801,-7.097,-7.0761,-7.0765,-7.0767,-7.109,-7.1098,-7.1106,0,0,0,0,0,0,-7.1059,-7.1062,-7.1067,-7.1049,-7.1046,-7.0952,-7.0969,-7.0949,-7.0951,-7.0868,-7.085,-7.088,-7.0796,-7.0796,-7.0874,-7.0965,-7.0766,-7.0769,-7.1082,-7.1093,-7.1102,-7.1313,0,0,0,0,0,0,-7.1059,-7.1063,-7.1118,-7.1051,-7.1048,-7.1141,-7.0974,-7.0952,-7.0957,-7.0937,-7.0883,-7.0868,-7.0791,-7.087,-7.0877,-7.0966,-7.0772,-7.1073,-7.1087,-7.1099,-7.1297,-7.1329,-7.1356,0,0,0,0,0,-7.1058,-7.1182,-7.1122,-7.1125,-7.1114,-7.1147,-7.1145,-7.1052,-7.0965,-7.102,-7.0967,-7.087,-7.0955,-7.088,-7.0886,-7.0978,-7.1067,-7.1083,-7.1098,-7.1284,-7.1323,-7.1355,0,0,0,0,0,0,-7.1264,-7.1171,-7.1104,-7.1208,-7.1187,-7.1113,-7.1179,-7.1096,-7.11,-7.1081,-7.0968,-7.0957,-7.1052,-7.1022,-7.0941,-7.1119,-7.0995,-7.1013,-7.1134,-7.117,-7.1199,-7.1204,-7.0775,0,0,0,0,0,-7.1321,-7.1354,-7.1271,-7.1372,-7.1364,-7.1275,-7.1286,-7.1216,-7.1189,-7.118,-7.1132,-7.1112,-7.1134,-7.1151,-7.1166,-7.1293,-7.1278,-7.1359,-7.1389,-7.1413,-7.1429,-7.1494,-7.1529,-7.1156,-7.1156,-7.1156,0,0,-7.144,-7.1393,-7.1421,-7.1412,-7.1387,-7.1425,-7.1268,-7.1315,-7.1343,-7.1187,-7.1257,-7.1223,-7.1193,-7.1296,-7.1339,-7.1274,-7.1529,-7.1433,-7.1453,-7.1455,-7.1513,-7.1549,-7.158,-7.1167,-7.1165,-7.1163,0,0,-7.1675,-7.1644,-7.1723,-7.1701,-7.1664,-7.1604,-7.1624,-7.1563,-7.1533,-7.1601,-7.1485,-7.1518,-7.1558,-7.1541,-7.1538,-7.1768,-7.1679,-7.1777,-7.193,-7.1995,-7.2024,-7.2049,-7.2131,-7.2162,-7.1793,-7.1794,-7.1794,0,-7.1828,-7.1879,-7.1776,-7.1829,-7.1829,-7.1689,-7.177,-7.1754,-7.1726,-7.173,-7.1658,-7.1705,-7.1675,-7.1772,-7.1828,-7.183,-7.185,-7.1782,-7.2028,-7.2052,-7.2075,-7.2151,-7.2183,-7.1806,-7.1805,-7.1803,-7.1802,0,-7.2068,-7.2106,-7.2175,-7.2148,-7.2156,-7.2224,-7.2133,-7.2153,-7.2084,-7.2032,-7.2104,-7.2063,-7.2067,-7.2086,-7.2019,-7.2174,-7.2135,-7.2048,-7.192,-7.2124,-7.2194,-7.2223,-7.1823,-7.1819,-7.1815,-7.1812,0,0,-7.2431,-7.2346,-7.2373,-7.2359,-7.2308,-7.2336,-7.2398,-7.2401,-7.2421,-7.2407,-7.2456,-7.2494,-7.2412,-7.2409,-7.2339,-7.2396,-7.2581,-7.2301,-7.2299,-7.2354,-7.2749,-7.2815,-7.285,-7.2522,-7.2527,-7.2532,-7.2751,0,-7.2652,-7.275,-7.2659,-7.2776,-7.2809,-7.2677,-7.2731,-7.2708,-7.2661,-7.2684,-7.2633,-7.2661,-7.2552,-7.2549,-7.2599,-7.2548,-7.2659,-7.2531,-7.2568,-7.2571,-7.2579,-7.2887,-7.2956,-7.3165,-7.2778,-7.2783,-7.2786,0,-7.2923,-7.2919,-7.3039,-7.298,-7.2991,-7.3041,-7.3036,-7.3059,-7.303,-7.2992,-7.2989,-7.2904,-7.2962,-7.2839,-7.2918,-7.2834,-7.2844,-7.2822,-7.2827,-7.2826,-7.269,-7.2894,-7.323,-7.3261,-7.2829,-7.2825,-7.2822,0,-7.3175,-7.3199,-7.3273,-7.3266,-7.32,-7.3238,-7.3213,-7.3177,-7.3184,-7.3181,-7.3185,-7.319,-7.3193,-7.32,-7.3119,-7.3037,-7.3209,-7.3079,-7.318,-7.3183,-7.3221,-7.322,-7.3563,-7.3231,-7.323,-7.323,-7.3229,0,-7.3431,-7.3509,-7.3385,-7.3431,-7.3515,-7.3411,-7.3498,-7.3459,-7.3429,-7.3466,-7.3354,-7.3392,-7.3283,-7.331,-7.3248,-7.3323,-7.3326,-7.3298,-7.328,-7.3307,-7.3311,-7.3311,-7.3294,-7.3238,-7.3236,-7.3235,-7.3233,0,-7.3725,-7.3645,-7.3717,-7.3648,-7.3633,-7.3698,-7.3639,-7.368,-7.3626,-7.3675,-7.3681,-7.3597,-7.3623,-7.3543,-7.3558,-7.3515,-7.3625,-7.3584,-7.3635,-7.3622,-7.3727,-7.3718,-7.4082,-7.4124,-7.3767,-7.377,-7.3773,0,-7.3893,-7.3949,-7.3886,-7.3902,-7.3882,-7.3909,-7.3915,-7.3817,-7.3829,-7.38,-7.3845,-7.3861,-7.3868,-7.3917,-7.3859,-7.387,-7.3828,-7.3955,-7.3829,-7.3854,-7.3829,-7.3826,-7.3831,-7.3981,-7.3985,-7.3989,-7.3991,0,-7.42,-7.4157,-7.4169,-7.4169,-7.4179,-7.4174,-7.4162,-7.4182,-7.4076,-7.4096,-7.4119,-7.4126,-7.4139,-7.4157,-7.4155,-7.4131,-7.4045,-7.4032,-7.4055,-7.4083,-7.4109,-7.4096,-7.3705,-7.4024,-7.402,-7.4018,-7.4016,-7.4015,-7.4434,-7.4478,-7.444,-7.4458,-7.4438,-7.443,-7.4464,-7.4414,-7.4431,-7.4433,-7.4374,-7.4411,-7.4382,-7.437,-7.4355,-7.4383,-7.4325,-7.436,-7.4368,-7.4378,-7.4395,-7.4106,-7.4383,-7.4382,-7.4381,-7.438,-7.4379,0,-7.4734,-7.4703,-7.4721,-7.4706,-7.4721,-7.4636,-7.4618,-7.4637,-7.4669,-7.4648,-7.4657,-7.4686,-7.4704,-7.4647,-7.4657,-7.4691,-7.4651,-7.4696,-7.4692,-7.4688,-7.4447,-7.4425,-7.4728,-7.4728,-7.4728,-7.4728,-7.4728,-7.4728,-7.4892,-7.4961,-7.4915,-7.4974,-7.4943,-7.4976,-7.4973,-7.4965,-7.4947,-7.4983,-7.4996,-7.4959,-7.4924,-7.493,-7.4943,-7.4926,-7.4935,-7.4994,-7.4964,-7.4739,-7.4705,-7.4673,-7.4651,-7.4997,-7.4997,-7.5202,-7.5203,-7.5205]},{"header":{"parameterUnit":"m.s-1","parameterCategory":1,"la1":30.2991,"la2":30.254,"lo1":-89.0895,"lo2":-89.0444,"dy":0.0017,"dx":0.0017,"nx":28,"ny":28,"refTime":"2024-09-04T03:00:00:Z","depth":0,"parameterNumber":3,"parameterNumberName":"V-component_of_WINDS"},"data":[0,0,0,0,0,0,0,0,0,0,0,0,0,0,0,0,0,0,0,0,0,0,0,0,0,0,0,0,0,0,0,0,0,0,0,0,0,0,0,0,0,0,0,0,0,0,0,0,0,0,0,0,0,0,0,0,0,0,-1.3532,-1.3534,0,-1.3717,-1.3719,-1.3721,-1.3747,-1.3745,-1.3744,-1.3742,-1.3938,-1.3944,-1.3951,0,0,0,0,0,0,0,0,0,0,0,0,0,-1.3204,-1.321,-1.3531,-1.3534,-1.3536,-1.3717,-1.3719,-1.3722,-1.3747,-1.3745,-1.3743,-1.3741,-1.3936,-1.3944,-1.3952,0,0,0,0,0,0,0,0,0,0,0,0,0,-1.3364,-1.3212,-1.3531,-1.357,-1.3576,-1.3716,-1.3719,-1.3722,-1.3748,-1.3745,-1.3743,-1.374,-1.3933,-1.3943,-1.3953,-1.4069,0,0,-1.3984,-1.3989,0,0,0,0,0,0,0,0,-1.3355,-1.3376,-1.3562,-1.3568,-1.3574,-1.3706,-1.3676,-1.3839,-1.3748,-1.3683,-1.3742,-1.3739,-1.3863,-1.3879,-1.392,-1.4078,-1.4086,-1.3985,-1.3991,-1.3996,-1.3999,0,0,0,0,0,0,0,-1.3344,-1.3368,-1.3605,-1.3565,-1.3572,-1.358,-1.36,-1.3707,-1.3786,-1.3688,-1.369,-1.3712,-1.3866,-1.391,-1.3925,-1.4089,-1.3985,-1.3994,-1.4,-1.4004,-1.4351,-1.4354,0,0,0,0,0,0,-1.3325,-1.3359,-1.3599,-1.3611,-1.3456,-1.3588,-1.361,-1.3666,-1.3784,-1.38,-1.3714,-1.3712,-1.3894,-1.3913,-1.3932,-1.4075,-1.3996,-1.4005,-1.4011,-1.4348,-1.4352,-1.4355,0,0,0,0,0,0,-1.3317,-1.3346,-1.3592,-1.3485,-1.3517,-1.3597,-1.3659,-1.3672,-1.3715,-1.3804,-1.3818,-1.3744,-1.3892,-1.3917,-1.4034,-1.4082,-1.401,-1.4019,-1.4344,-1.4349,-1.4353,-1.4363,0,0,0,0,0,0,-1.3308,-1.3343,-1.3387,-1.3486,-1.3523,-1.369,-1.3662,-1.3677,-1.3732,-1.3732,-1.3836,-1.385,-1.3892,-1.4018,-1.4044,-1.4095,-1.4027,-1.4341,-1.4346,-1.4352,-1.4358,-1.4367,-1.4374,0,0,0,0,0,-1.3296,-1.3384,-1.3389,-1.3418,-1.3579,-1.3692,-1.3714,-1.3758,-1.3736,-1.3781,-1.3838,-1.3847,-1.4072,-1.403,-1.4059,-1.4114,-1.4338,-1.4345,-1.4351,-1.4355,-1.4365,-1.4374,0,0,0,0,0,0,-1.3291,-1.3397,-1.3405,-1.3526,-1.36,-1.3696,-1.3755,-1.3768,-1.3851,-1.3847,-1.39,-1.3924,-1.4038,-1.4087,-1.4039,-1.4232,-1.4203,-1.4216,-1.4196,-1.4206,-1.4214,-1.4201,-1.4036,0,0,0,0,0,-1.3303,-1.3385,-1.3474,-1.3573,-1.3609,-1.3676,-1.3727,-1.3754,-1.3833,-1.3865,-1.393,-1.4008,-1.4096,-1.4154,-1.424,-1.4365,-1.4388,-1.4417,-1.4424,-1.443,-1.4442,-1.4512,-1.4526,-1.4378,-1.4377,-1.4377,0,0,-1.3332,-1.34,-1.3448,-1.3574,-1.3634,-1.3719,-1.3702,-1.3793,-1.3856,-1.388,-1.3994,-1.4044,-1.4134,-1.4255,-1.4312,-1.43,-1.4488,-1.4439,-1.4443,-1.4452,-1.452,-1.4534,-1.4547,-1.4382,-1.4381,-1.4381,0,0,-1.3426,-1.3485,-1.3574,-1.3633,-1.3723,-1.3767,-1.3787,-1.3882,-1.3916,-1.403,-1.4049,-1.4126,-1.4277,-1.4341,-1.4393,-1.4508,-1.452,-1.4534,-1.4577,-1.4645,-1.4656,-1.4667,-1.4709,-1.4724,-1.4545,-1.4545,-1.4545,0,-1.345,-1.3577,-1.3618,-1.3708,-1.3763,-1.3784,-1.3875,-1.3932,-1.4046,-1.4085,-1.4069,-1.4257,-1.432,-1.4456,-1.4484,-1.4525,-1.4552,-1.4524,-1.4651,-1.4662,-1.4673,-1.4714,-1.4729,-1.4546,-1.4546,-1.4546,-1.4546,0,-1.3602,-1.369,-1.3751,-1.3858,-1.392,-1.401,-1.4066,-1.4123,-1.4144,-1.4189,-1.4306,-1.4381,-1.4482,-1.4516,-1.4539,-1.4656,-1.4646,-1.4639,-1.4612,-1.4687,-1.4727,-1.4743,-1.4548,-1.4548,-1.4547,-1.4547,0,0,-1.3702,-1.3828,-1.3851,-1.3899,-1.3999,-1.4068,-1.4159,-1.4256,-1.4304,-1.4382,-1.446,-1.4586,-1.458,-1.4639,-1.4669,-1.4728,-1.4815,-1.4715,-1.4718,-1.4732,-1.495,-1.4955,-1.4973,-1.4822,-1.4826,-1.4828,-1.4943,0,-1.3809,-1.397,-1.4009,-1.4147,-1.4228,-1.4249,-1.4328,-1.4398,-1.4442,-1.4519,-1.4568,-1.4657,-1.4642,-1.4677,-1.4736,-1.4792,-1.486,-1.4784,-1.4898,-1.4902,-1.4877,-1.4994,-1.5,-1.5105,-1.4959,-1.4961,-1.4963,0,-1.3956,-1.4034,-1.418,-1.4268,-1.4304,-1.4374,-1.4465,-1.4538,-1.4618,-1.4646,-1.471,-1.4733,-1.483,-1.4794,-1.4929,-1.4876,-1.4925,-1.4959,-1.4964,-1.4979,-1.4939,-1.5013,-1.514,-1.5156,-1.4988,-1.4986,-1.4984,0,-1.4016,-1.4157,-1.4263,-1.4304,-1.4409,-1.4457,-1.4504,-1.4581,-1.4636,-1.4716,-1.4753,-1.4844,-1.4894,-1.4965,-1.5012,-1.4982,-1.5143,-1.5112,-1.5171,-1.517,-1.5206,-1.5204,-1.5344,-1.5233,-1.5233,-1.5233,-1.5232,0,-1.4133,-1.4222,-1.4291,-1.4356,-1.4456,-1.45,-1.4598,-1.4645,-1.4713,-1.4788,-1.4811,-1.4882,-1.4939,-1.5018,-1.5056,-1.5162,-1.5184,-1.5211,-1.522,-1.521,-1.5207,-1.5245,-1.524,-1.5237,-1.5236,-1.5235,-1.5235,0,-1.4218,-1.4268,-1.4384,-1.4472,-1.4497,-1.4566,-1.4643,-1.4708,-1.475,-1.4846,-1.4871,-1.4939,-1.5033,-1.5086,-1.5205,-1.523,-1.5349,-1.5354,-1.5321,-1.5326,-1.5382,-1.5377,-1.5554,-1.558,-1.5449,-1.5451,-1.5452,0,-1.4291,-1.4359,-1.4454,-1.4505,-1.4551,-1.4633,-1.4689,-1.4734,-1.4792,-1.4887,-1.494,-1.5034,-1.5113,-1.5262,-1.5324,-1.5414,-1.5423,-1.5478,-1.5437,-1.5425,-1.5426,-1.5422,-1.543,-1.5487,-1.5488,-1.5489,-1.549,0,-1.4415,-1.4435,-1.4514,-1.46,-1.4666,-1.4737,-1.4807,-1.4848,-1.4905,-1.4969,-1.5064,-1.5124,-1.5243,-1.5338,-1.5433,-1.5482,-1.5497,-1.5501,-1.552,-1.5512,-1.5491,-1.5505,-1.5343,-1.5498,-1.5497,-1.5497,-1.5496,-1.5496,-1.4498,-1.4559,-1.4635,-1.4721,-1.4778,-1.4843,-1.4908,-1.4957,-1.5037,-1.5136,-1.5158,-1.5258,-1.5336,-1.5465,-1.5516,-1.5596,-1.5587,-1.5614,-1.5621,-1.5627,-1.563,-1.5475,-1.5614,-1.5614,-1.5614,-1.5613,-1.5613,0,-1.4624,-1.4673,-1.4752,-1.4848,-1.4916,-1.492,-1.4998,-1.5055,-1.5142,-1.5212,-1.5288,-1.5397,-1.5487,-1.5555,-1.5648,-1.5699,-1.5708,-1.5722,-1.572,-1.5732,-1.5633,-1.5608,-1.5713,-1.5713,-1.5713,-1.5713,-1.5713,-1.5713,-1.4698,-1.4802,-1.4831,-1.4964,-1.5013,-1.511,-1.5154,-1.5214,-1.527,-1.539,-1.5465,-1.5507,-1.5576,-1.5674,-1.5758,-1.5775,-1.5809,-1.5823,-1.5842,-1.5749,-1.5738,-1.5728,-1.5705,-1.583,-1.583,-1.5935,-1.5936,-1.5936]}]]